Terug naar catalogus

STARLINK-2170

ActiefCommunicatieVLEO
NORAD 47753·PAYLOAD·🇺🇸 United States

Gelanceerd Mar 4, 2021 vanaf Cape Canaveral Space Force Station

Loading…

Volgende Passages (komende 24 uur)

TLE

VersSource: CelesTrak SupGP

Epoch: Sep 14, 2026, 21:17 UTC

1 47753C 21017AH  26257.88729167  .00083798  00000+0  25025-2 0  2574
2 47753  53.1598  43.1378 0001577 328.0717 109.9340 15.34010890    11

Volg STARLINK-2170 in realtime met AllMySat

Download on the App Store